This is the latest recevied weather packets stored in our database for station/object M0XDC. If no packets are shown the sender has not sent any weather packets the latest 10 day(s).
| Time | Temp. | Humidity | Pressure | Rain* | Wind** | Luminosity | Snow |
|---|---|---|---|---|---|---|---|
| 1788062505 | 16.11° C | 85% | 1005.9 hPa | 0 mm | - | - | - |
| 1788060717 | 16.67° C | 84% | 1005.4 hPa | 0 mm | - | - | - |
| 1788060705 | 16.67° C | 84% | 1005.4 hPa | 0 mm | - | - | - |
| 1788058905 | 16.67° C | 83% | 1005 hPa | 0 mm | - | - | - |
| 1788057105 | 17.22° C | 83% | 1004.4 hPa | 0 mm | - | - | - |
| 1788055305 | 17.22° C | 85% | 1004.2 hPa | 0 mm | - | - | - |
| 1788053505 | 17.22° C | 87% | 1003.8 hPa | 0 mm | - | - | - |
| 1788051705 | 17.22° C | 89% | 1003.5 hPa | 0 mm | - | - | - |
| 1788049905 | 17.22° C | 90% | 1003.5 hPa | 0 mm | - | - | - |
| 1788048105 | 17.22° C | 92% | 1002.9 hPa | 0 mm | - | - | - |
| 1788046305 | 17.78° C | 87% | 1002.6 hPa | 0 mm | - | - | - |
| 1788044505 | 17.78° C | 87% | 1002.5 hPa | 0 mm | - | - | - |
| 1788042705 | 18.33° C | 87% | 1002.5 hPa | 0 mm | - | - | - |
| 1788040905 | 18.33° C | 87% | 1002.2 hPa | 0 mm | - | - | - |
| 1788039105 | 18.33° C | 89% | 1001.9 hPa | 0 mm | - | - | - |
| 1788037305 | 18.33° C | 90% | 1001.5 hPa | 0 mm | - | - | - |
| 1788035505 | 17.78° C | 92% | 1001.2 hPa | 0 mm | - | - | - |
| 1788033705 | 18.33° C | 91% | 1001.1 hPa | 0 mm | - | - | - |
| 1788031905 | 18.33° C | 90% | 1000.4 hPa | 0 mm | - | - | - |
| 1788030105 | 18.33° C | 88% | 999.8 hPa | 0 mm | - | - | - |
| 1788028305 | 18.33° C | 90% | 998.8 hPa | 0 mm | - | - | - |
| 1788026504 | 17.78° C | 93% | 998.6 hPa | 0 mm | - | - | - |
| 1788024705 | 18.33° C | 91% | 998.6 hPa | 0.25 mm | - | - | - |
| 1788022905 | 18.33° C | 88% | 998.2 hPa | 0.25 mm | - | - | - |
| 1788021105 | 18.89° C | 87% | 998.1 hPa | 0 mm | - | - | - |
* Rain latest hour (hover to see other rain measurements)
** Current wind speed in m/s (hover to see current wind gust speed)